Flag for Japan Weather past 2 weeks in Suzuka, Japan

Now
88 °F

Hot.


Feels Like: 101 °F
Forecast: 75 / 91 °F
Wind: 6 mph from East

Location: Tsu

Current Time: Aug 3, 2015 at 12:24:56 PM

Latest Report: Aug 3, 2015 at 11:00 AM


Visibility: N/A

Pressure: 29.90 "Hg

Humidity: 72%

Dew point: 78 °F

Location of SuzukaLocation

Historic Weather in Suzuka — Graph

°F

Suzuka temperature yesterday

Maximum temperature yesterday: 92 °F (at 6:00 PM)
Minimum temperature yesterday: 82 °F (at 4:00 AM)
Average temperature yesterday: 87 °F

Past Weeks' High & Low Weather Summary

 TemperatureHumidityPressure
High98 °F (Jul 31, 3:00 PM)96% (Jul 23, 5:00 AM)30.01 "Hg (Jul 23, 5:00 AM)
Low76 °F (Jul 23, 5:00 AM)41% (Jul 31, 4:00 PM)29.70 "Hg (Jul 27, 5:00 PM)
Average85 °F72%29.86 "Hg
* Reported Jul 19 11:00 AM — Aug 3 11:00 AM, Suzuka, Weather by CustomWeather, © 2015

Note: Actual official high and low records may vary slightly from our data, if they occured in-between our weather recording intervals... More about our weather records

Advertising

Suzuka weather history for previous 24 hours

 ConditionsComfort  
Time TempWeatherWind HumidityBarometerVisibility
11:00 AM
Mon, Aug 3
88 °FHot.6 mph72%29.90 "HgN/A
10:00 AM87 °FWarm.5 mph74%29.91 "HgN/A
9:00 AM85 °FFog.6 mph78%29.92 "Hg5 mi
8:00 AM84 °FWarm.5 mph81%29.92 "HgN/A
7:00 AM83 °FWarm.3 mph85%29.92 "HgN/A
5:00 AM82 °FWarm.3 mph88%29.90 "HgN/A
4:00 AM82 °FWarm.3 mph87%29.89 "HgN/A
3:00 AM82 °FWarm.5 mph89%29.89 "HgN/A
2:00 AM83 °FWarm.5 mph87%29.89 "HgN/A
1:00 AM83 °FWarm.6 mph88%29.89 "HgN/A
12:00 AM84 °FWarm.5 mph85%29.90 "HgN/A
11:00 PM
Sun, Aug 2
84 °FWarm.6 mph84%29.90 "HgN/A
10:00 PM85 °FWarm.8 mph83%29.89 "HgN/A
9:00 PM87 °FOvercast.9 mph80%29.88 "Hg6 mi
8:00 PM89 °FHot.6 mph71%29.85 "HgN/A
7:00 PM92 °FHot.7 mph58%29.83 "HgN/A
6:00 PM92 °FHot.9 mph66%29.83 "HgN/A
5:00 PM91 °FHot.7 mph71%29.84 "HgN/A
4:00 PM90 °FHot.10 mph72%29.85 "HgN/A
3:00 PM90 °FHaze.9 mph70%29.86 "Hg4 mi
2:00 PM90 °FHot.6 mph71%29.88 "HgN/A
1:00 PM90 °FHot.6 mph69%29.89 "HgN/A
12:00 PM89 °FHot.6 mph72%29.90 "HgN/A
Weather by CustomWeather, © 2015

See weather overviewHow to use our weather pages